Regional Weather Roundup
Issued by NWS Jackson, KY

Home | Current Version | Previous Version | Text Only | Print | Product List | Glossary Off
Versions: 1 2 3 4 5 6 7 8 9 10 11 12 13 14 15 16 17 18 19 20 21 22 23 24 25 26 27 28

000
ASUS43 KJKL 210210
RWRJKL

EAST KENTUCKY HOURLY WEATHER ROUNDUP
NATIONAL WEATHER SERVICE JACKSON KY
900 PM EST MON FEB 20 2017

NOTE: "FAIR" INDICATES FEW OR NO CLOUDS BELOW 12,000 FEET WITH
NO SIGNIFICANT WEATHER AND/OR OBSTRUCTIONS TO VISIBILITY.

* THESE REPORTS ARE NOT UNDER NWS QUALITY CONTROL AND MAY NOT
  REPORT WEATHER SUCH AS PRECIPITATION AND FOG.

KYZ079-080-083-085-087-088-110-112-115-119-120-210300
...EASTERN KENTUCKY...

CITY           SKY/WX    TMP DP  RH WIND       PRES   REMARKS
JACKSON        CLOUDY    62  37  39 E5        30.13R
LONDON         CLOUDY    53  39  59 CALM      30.12R
SOMERSET*      PTCLDY    55  41  58 CALM      30.12S
MONTICELLO*    CLOUDY    50  44  80 CALM      30.12S
WILLIAMSBURG*  CLOUDY    59  41  51 SE5       30.12S
MIDDLESBORO*   MOCLDY    49  44  81 CALM      30.15R
HARLAN APT*    CLOUDY    54  37  54 CALM      30.15R
PIKE CO APT*     N/A     58  36  43 NE5       30.12S
BIG SANDY APT* PTCLDY    55  38  51 NE5       30.13S
MOREHEAD APT*  PTCLDY    59  39  47 E7        30.14S
ASHLAND*       PTCLDY    46  43  87 CALM      30.12F
$$

KYZ035-036-041-042-044-050-067-078-099-210300
...CENTRAL KENTUCKY...

CITY           SKY/WX    TMP DP  RH WIND       PRES   REMARKS
MT STERLING*   CLOUDY    59  43  55 SE7       30.13S
FLEMING/MASON* PTCLDY    53  40  61 E7        30.13F
DANVILLE*      PTCLDY    55  43  62 CALM      30.11S
LEXINGTON      PTCLDY    60  43  53 E5        30.10S
FRANKFORT      PTCLDY    60  45  57 E6        30.08S
LOUISVILLE     CLOUDY    61  42  49 SE5       30.06R
LEBANON*         N/A     63  41  45 SE7       30.09S
GLASGOW*       CLOUDY    56  47  71 CALM      30.08S
BOWLING GREEN  CLOUDY    57  46  66 CALM      30.07R
$$

KYZ091>093-OHZ055-061-077-WVZ005-015-034-035-042-210300
...SOUTHERN OHIO/WEST VIRGINIA...

CITY           SKY/WX    TMP DP  RH WIND       PRES   REMARKS
COVINGTON      CLOUDY    57  44  62 SE7       30.10R
COLUMBUS       CLOUDY    51  41  68 E8        30.14F
DAYTON         CLOUDY    53  44  71 SE10      30.12F
WILMINGTON     CLOUDY    51  40  65 SE6       30.13S
HUNTINGTON     CLOUDY    54  37  52 NE3       30.13F
CHARLESTON     CLOUDY    51  41  68 CALM      30.14S
PINEVILLE*     MOCLDY    46  34  61 MISG      30.19S
BECKLEY        CLOUDY    57  33  40 SE12      30.17S
BLUEFIELD      PTCLDY    58  27  30 SE5       30.19S
LOGAN CO APT*    N/A     57  37  47 CALM      30.14R
$$

VAZ002-007-008-TNZ017-027-036-066-071-210300
...SOUTHWEST VIRGINIA/EAST TENNESSEE...

CITY           SKY/WX    TMP DP  RH WIND       PRES   REMARKS
WISE*          CLOUDY    59  28  31 CALM      30.17S
JONESVILLE*      N/A    N/A N/A N/A CALM      30.16R
ABINGDON*      PTCLDY    56  38  51 CALM      30.16R
BRISTOL        CLOUDY    51  37  58 CALM      30.15R
MORRISTOWN*    CLEAR     55  45  67 CALM      30.13R
SEVIERVILLE*   CLEAR     50  43  76 CALM      30.13R
KNOXVILLE      CLOUDY    57  44  62 SW5       30.12R
LAFOLLETTE*    CLEAR     52  45  76 CALM      30.16S
CROSSVILLE     MOCLDY    54  44  69 CALM      30.15R
NASHVILLE      CLOUDY    64  44  48 S6        30.07S
$$

...KEY TO REMARKS...
VSB - VISIBILITY IN MILES
WCI - WIND CHILL INDEX
HX  - HEAT INDEX

$$




USA.gov is the U.S. government's official web portal to all federal, state and local government web resources and services.